Temp
55 54 54 55 54 53 53 50 44 52 53 44 42 38 47 53 58 62 61 58 58 56 56 55 54 53 55 57 59 55 53 48 42 49 55 57 54 52 50 40 39 37 34 35
54 54 54 54 53 54 50 47 47 51 51 37 37 45 51 55 55 58 57 55 57 58 55 51 51 51 56 57 57 54 54 45 40 45 50 53 50 53 51 46 41 37 32 37
54 54 53 54 53 54 50 47 41 45 45 42 44 43 46 48 58 58 59 58 58 54 51 52 48 50 54 55 55 53 55 48 45 41 45 49 46 51 50 47 36 37 37 41
53 54 53 53 53 53 51 45 43 44 39 41 42 46 47 48 49 59 59 56 55 53 47 47 45 49 51 55 54 53 53 45 47 48 50 50 49 49 49 46 44 40 42 43
53 53 53 53 53 53 48 44 43 42 40 45 43 42 44 49 53 54 54 53 56 54 50 52 46 50 50 51 51 50 50 43 45 41 48 49 46 48 48 47 47 45 43 42
53 53 53 52 52 53 48 44 46 44 41 40 40 44 46 49 53 56 58 55 54 52 54 52 51 50 52 53 50 46 46 43 39 38 44 44 39 45 48 47 47 45 40 44
53 53 52 52 52 52 50 49 45 44 35 40 43 48 48 49 51 51 55 55 52 56 57 56 56 54 53 52 49 52 45 42 39 33 38 28 45 52 52 49 48 46 45 43
52 52 52 51 52 53 48 49 48 45 38 41 45 47 46 48 49 53 51 53 55 56 53 47 43 41 47 49 50 48 50 41 32 30 31 40 46 50 50 47 44 47 44 41
51 51 51 51 52 52 51 50 49 47 42 38 42 45 47 42 42 44 49 55 55 53 46 41 34 34 41 41 45 51 48 45 38 27 28 30 44 51 55 53 39 47 45 42
51 51 51 51 52 53 51 50 51 48 41 43 41 40 42 47 43 43 46 52 52 51 43 37 34 35 47 38 39 40 39 38 34 30 28 36 48 53 55 38 40 46 46 45
51 51 51 51 51 52 51 49 51 49 42 43 43 43 39 44 44 41 46 48 47 44 41 39 37 36 42 41 45 42 39 34 32 33 30 31 52 51 45 47 47 47 46 44
51 51 51 50 50 51 52 48 52 52 45 42 47 46 48 45 45 44 44 48 47 46 42 39 40 36 38 40 34 47 40 43 37 40 38 48 49 51 50 51 48 47 45 42
50 50 51 51 51 51 52 48 49 48 43 42 42 42 49 49 48 49 45 48 51 48 48 43 40 38 40 34 39 43 47 50 43 43 47 48 49 50 50 49 49 48 46 43
50 50 50 51 51 51 52 48 50 47 42 34 40 51 48 52 50 49 50 51 48 47 45 36 34 36 43 37 43 41 45 47 44 41 45 48 49 49 48 47 48 46 46 44
50 50 52 51 52 52 51 50 51 49 44 35 37 46 50 50 50 50 52 51 48 44 39 34 34 37 38 37 38 39 47 45 40 37 48 45 46 48 48 46 46 46 44 41
51 51 51 51 51 51 49 44 50 50 48 39 34 44 45 48 49 49 47 49 46 44 40 35 37 43 39 32 32 46 49 50 50 44 47 45 45 47 48 45 44 44 43 42
49 50 50 50 50 50 43 41 47 51 48 37 34 36 45 47 46 44 45 44 44 43 37 34 37 39 38 32 32 45 46 47 47 48 46 43 44 43 44 42 41 41 40 39
50 50 50 50 50 50 46 47 48 51 45 42 33 34 37 47 40 37 41 40 39 38 35 37 38 39 37 33 43 46 47 47 46 46 46 43 41 41 40 40 39 35 33 33
50 49 49 48 46 42 44 48 48 48 45 35 31 32 32 43 35 38 38 38 34 37 32 37 40 32 32 41 43 44 45 43 43 44 44 41 38 37 38 37 36 32 30 30
49 48 40 34 41 48 50 45 38 37 39 40 34 35 29 37 34 32 33 33 31 30 34 39 34 34 41 41 44 43 41 42 40 36 35 36 34 35 35 35 35 34 32 29
41 35 34 41 47 43 39 32 32 33 33 35 34 36 35 42 33 32 36 31 33 31 34 35 30 31 37 41 39 38 37 36 36 35 34 37 38 36 34 32 32 32 30 28
41 42 44 43 38 33 31 31 32 32 34 32 33 35 36 37 41 35 33 32 32 30 33 28 26 32 39 38 36 35 34 35 35 35 33 34 38 37 34 31 29 27 27 26
44 40 35 34 32 29 29 27 31 30 32 33 34 31 36 38 39 33 33 30 27 33 23 26 27 37 38 36 35 33 35 35 34 33 33 29 27 28 29 26 24 26 25 18
35 32 28 30 28 30 31 31 33 34 36 39 36 31 32 33 34 32 32 32 32 23 18 26 33 35 34 34 32 31 31 32 32 32 32 31 31 31 30 31 31 28 24 14
33 33 29 31 34 34 34 33 34 39 41 37 34 35 35 32 32 33 33 30 27 28 27 32 34 34 33 32 31 30 32 31 31 32 30 30 30 29 27 26 25 23 19 19
35 34 32 35 34 32 32 36 38 41 38 40 38 33 31 31 32 30 30 29 28 30 32 33 35 33 32 31 32 32 33 33 32 32 32 31 30 30 29 30 30 26 24 20
35 33 35 35 34 35 34 37 37 40 39 32 35 31 31 34 31 29 30 30 31 32 32 34 33 33 34 33 31 30 32 32 31 32 33 32 33 33 31 30 30 31 30 28
MSLP
1014.95 1015.26 1015.55 1015.94 1016.40 1016.91 1017.44 1017.57 1017.72 1016.89 1016.53 1017.12 1016.91 1016.50 1015.26 1014.05 1012.69 1011.60 1010.97 1010.56 1010.60 1010.63 1010.89 1011.55 1012.13 1012.38 1012.51 1012.62 1012.64 1013.33 1013.81 1014.85 1015.56 1015.36 1015.03 1014.94 1015.26 1015.95 1017.06 1018.88 1020.15 1021.06 1021.57 1020.53
1014.92 1015.20 1015.56 1015.89 1016.40 1016.60 1017.23 1017.59 1017.53 1017.01 1016.99 1017.15 1017.32 1016.56 1015.44 1014.49 1013.63 1012.55 1011.78 1011.11 1011.09 1010.84 1011.03 1011.87 1012.37 1012.80 1013.06 1012.90 1013.15 1013.47 1013.97 1015.14 1016.10 1016.11 1015.89 1015.43 1015.47 1015.93 1016.83 1018.27 1019.48 1020.61 1021.54 1020.58
1014.83 1015.12 1015.51 1015.92 1016.38 1016.63 1016.83 1017.51 1017.42 1017.94 1017.94 1017.64 1017.13 1016.81 1015.84 1014.80 1013.75 1013.11 1012.64 1011.96 1011.40 1011.27 1011.68 1011.96 1012.90 1013.35 1013.56 1013.47 1013.63 1013.89 1014.23 1015.37 1015.58 1015.63 1015.47 1015.35 1015.71 1015.94 1016.74 1017.91 1019.48 1020.12 1020.31 1020.28
1014.76 1015.05 1015.48 1015.87 1016.38 1016.74 1016.91 1017.30 1017.32 1017.18 1017.85 1017.71 1017.29 1016.74 1016.01 1015.07 1014.48 1013.29 1012.84 1012.13 1011.73 1012.20 1012.60 1012.76 1013.33 1013.83 1014.07 1014.14 1014.14 1014.45 1014.92 1015.95 1016.17 1016.38 1016.14 1015.82 1015.85 1016.21 1016.91 1017.73 1018.44 1019.31 1019.45 1020.13
1014.55 1015.00 1015.51 1015.96 1016.45 1016.86 1017.21 1017.48 1017.63 1017.29 1017.23 1016.81 1017.24 1016.66 1015.82 1014.87 1014.06 1013.86 1013.34 1013.17 1012.24 1012.35 1012.66 1012.36 1012.92 1013.34 1013.81 1013.73 1014.65 1014.97 1015.58 1016.75 1016.98 1017.64 1017.27 1016.83 1016.64 1016.53 1016.81 1017.35 1017.93 1018.66 1019.38 1020.12
1014.35 1014.75 1015.37 1015.92 1016.38 1016.64 1016.88 1017.13 1016.92 1017.15 1016.90 1016.88 1016.99 1016.28 1015.55 1015.04 1014.39 1013.39 1013.02 1013.08 1013.00 1012.73 1012.33 1012.31 1012.35 1012.75 1012.84 1013.32 1014.30 1015.42 1016.16 1017.19 1018.32 1018.84 1018.43 1017.85 1017.47 1016.49 1016.54 1016.88 1017.53 1018.37 1019.45 1020.06
1014.04 1014.49 1015.05 1015.65 1016.11 1016.38 1016.58 1016.86 1017.06 1017.28 1017.39 1017.10 1016.74 1016.10 1015.97 1015.56 1015.00 1014.09 1013.43 1012.98 1013.70 1013.23 1012.71 1012.61 1012.79 1013.19 1013.89 1014.27 1014.97 1015.11 1016.59 1017.90 1019.07 1020.19 1019.60 1019.04 1017.21 1016.54 1016.50 1016.97 1017.99 1018.39 1019.56 1020.57
1013.73 1014.31 1014.79 1015.33 1015.98 1016.34 1016.79 1016.91 1017.11 1017.32 1017.59 1017.37 1016.71 1016.31 1015.99 1015.76 1015.44 1014.78 1014.21 1014.03 1014.12 1013.98 1013.88 1014.45 1014.53 1015.30 1015.40 1015.93 1016.20 1016.09 1016.38 1018.18 1020.35 1021.13 1020.71 1019.39 1017.47 1016.72 1016.72 1017.22 1018.35 1019.02 1020.23 1021.58
1013.35 1013.95 1014.49 1015.14 1015.79 1016.34 1017.01 1017.06 1017.04 1017.44 1018.13 1017.97 1017.83 1016.62 1015.89 1015.98 1015.56 1015.43 1014.20 1014.15 1013.90 1014.43 1015.11 1016.43 1016.68 1016.51 1016.38 1016.89 1017.08 1017.03 1017.39 1018.30 1019.86 1021.56 1021.45 1019.79 1017.62 1016.81 1016.74 1017.31 1018.48 1019.34 1020.49 1021.83
1012.91 1013.55 1014.21 1014.93 1015.60 1016.16 1016.70 1016.84 1016.85 1017.19 1018.04 1017.92 1018.12 1017.56 1016.50 1015.30 1015.54 1015.43 1015.01 1014.31 1014.47 1014.67 1015.77 1017.42 1018.34 1017.28 1016.63 1016.87 1017.03 1017.80 1018.50 1019.78 1020.76 1021.48 1020.95 1019.19 1017.45 1016.98 1017.12 1018.44 1018.95 1019.51 1020.67 1021.77
1012.49 1013.21 1013.92 1014.64 1015.38 1015.95 1016.44 1016.65 1016.62 1017.06 1017.66 1017.91 1018.07 1017.90 1017.44 1016.15 1015.48 1015.39 1014.86 1015.00 1014.90 1015.56 1016.36 1017.24 1017.97 1018.10 1017.25 1016.94 1016.94 1017.21 1018.09 1019.43 1020.60 1021.16 1020.65 1018.61 1016.99 1017.49 1017.78 1017.99 1018.70 1019.67 1020.89 1021.96
1012.01 1012.88 1013.65 1014.41 1015.12 1015.73 1016.26 1016.57 1016.59 1016.79 1017.63 1017.85 1017.61 1017.13 1016.94 1017.22 1016.47 1015.45 1014.63 1014.04 1014.07 1014.56 1015.98 1017.13 1018.09 1018.91 1017.90 1017.53 1017.44 1016.98 1017.71 1017.66 1018.38 1019.05 1018.61 1017.48 1017.26 1017.35 1017.28 1017.37 1018.55 1020.04 1020.93 1022.24
1011.59 1012.46 1013.32 1014.12 1014.87 1015.59 1016.02 1016.39 1016.64 1017.06 1017.94 1017.52 1017.09 1016.40 1015.88 1016.12 1015.89 1015.19 1014.49 1013.90 1013.81 1014.30 1014.25 1016.11 1017.17 1017.94 1017.76 1017.73 1017.28 1017.04 1016.91 1017.08 1017.79 1018.27 1018.05 1017.90 1017.81 1018.10 1018.44 1018.56 1018.87 1020.07 1021.03 1022.24
1011.13 1012.04 1013.04 1013.90 1014.65 1015.36 1015.83 1016.20 1016.27 1016.65 1017.90 1018.15 1016.65 1015.56 1015.79 1014.92 1014.60 1014.47 1013.85 1013.29 1013.24 1014.35 1014.32 1016.56 1017.98 1018.36 1018.12 1018.29 1017.38 1017.20 1017.02 1017.10 1017.83 1018.54 1018.45 1018.48 1018.57 1018.70 1019.26 1019.43 1019.81 1020.73 1021.94 1022.73
1010.80 1011.74 1012.77 1013.68 1014.46 1015.25 1015.97 1016.19 1016.17 1016.02 1016.70 1017.74 1017.33 1016.01 1015.60 1014.90 1013.97 1013.71 1013.06 1013.30 1013.46 1014.65 1016.27 1018.52 1019.35 1019.07 1019.03 1018.62 1018.12 1017.76 1017.16 1017.18 1017.65 1018.04 1017.78 1018.26 1018.80 1019.35 1019.75 1020.15 1020.86 1021.51 1022.34 1023.83
1010.53 1011.58 1012.54 1013.48 1014.31 1015.28 1015.89 1016.16 1016.34 1016.23 1016.56 1017.59 1017.78 1016.79 1015.99 1015.10 1014.31 1013.70 1013.96 1012.79 1013.83 1015.92 1017.61 1018.91 1019.10 1018.67 1018.58 1018.91 1019.05 1018.27 1017.53 1017.55 1017.65 1017.97 1018.18 1018.88 1019.33 1019.99 1020.45 1021.24 1021.96 1022.58 1023.20 1024.11
1010.32 1011.36 1012.38 1013.37 1014.17 1014.86 1015.23 1015.49 1015.49 1015.73 1016.41 1017.78 1018.46 1017.71 1015.87 1015.33 1014.86 1014.95 1015.10 1014.49 1015.57 1016.79 1018.03 1018.94 1019.18 1018.84 1018.49 1019.11 1019.49 1019.01 1018.73 1018.64 1018.56 1019.11 1019.47 1020.07 1020.32 1021.09 1021.67 1022.28 1023.29 1023.85 1024.81 1025.69
1010.29 1011.48 1012.51 1013.41 1014.22 1014.79 1015.15 1015.45 1015.51 1015.48 1016.75 1017.75 1018.20 1017.77 1017.15 1015.23 1015.54 1015.96 1016.10 1016.13 1016.74 1017.65 1018.87 1019.13 1019.17 1019.13 1019.21 1019.79 1019.60 1019.43 1019.49 1019.64 1020.12 1020.48 1020.20 1020.32 1021.30 1022.26 1023.08 1023.53 1024.12 1025.32 1026.49 1027.20
1010.51 1011.76 1012.97 1013.88 1014.23 1014.48 1014.70 1015.11 1015.65 1015.94 1016.51 1017.02 1017.35 1017.27 1016.21 1014.92 1015.44 1015.97 1016.15 1016.59 1018.31 1019.20 1019.47 1019.58 1019.47 1020.11 1020.03 1019.85 1019.87 1019.97 1019.93 1020.57 1021.08 1021.38 1021.75 1021.67 1022.44 1023.42 1023.99 1024.43 1025.45 1026.20 1027.59 1028.34
1010.72 1011.98 1013.02 1013.84 1013.79 1013.92 1014.11 1015.30 1016.10 1016.14 1015.78 1016.48 1016.54 1016.22 1016.05 1015.78 1016.73 1017.51 1018.41 1018.52 1019.53 1019.89 1020.22 1019.85 1020.02 1020.68 1020.48 1020.56 1020.38 1020.43 1020.83 1021.46 1021.81 1022.40 1023.09 1023.43 1023.98 1024.39 1025.02 1025.60 1026.20 1026.88 1027.96 1029.00
1010.75 1012.22 1013.22 1013.70 1013.91 1014.12 1015.05 1015.67 1016.01 1015.87 1015.82 1015.69 1015.44 1015.44 1015.52 1015.80 1016.53 1017.58 1018.27 1019.14 1019.75 1020.42 1020.60 1020.68 1021.15 1021.11 1021.22 1021.69 1021.49 1021.66 1021.81 1022.18 1022.91 1023.36 1023.54 1023.51 1023.90 1024.80 1025.60 1026.49 1027.11 1027.79 1028.54 1029.38
1010.05 1010.91 1012.44 1013.73 1013.67 1014.60 1014.99 1014.62 1014.78 1014.47 1014.03 1014.42 1014.32 1015.11 1015.06 1015.91 1015.93 1017.31 1018.87 1019.55 1020.45 1020.98 1020.77 1021.34 1021.62 1021.18 1021.42 1021.85 1022.47 1022.84 1022.78 1023.62 1024.08 1024.32 1024.42 1024.38 1024.67 1025.32 1026.07 1026.88 1027.71 1028.41 1029.12 1029.89
1009.96 1011.30 1012.62 1013.13 1014.03 1013.91 1013.35 1013.40 1013.48 1013.61 1013.28 1013.34 1013.61 1014.87 1014.93 1015.70 1016.11 1017.85 1018.76 1019.64 1020.46 1020.32 1021.01 1021.13 1021.06 1021.31 1021.77 1022.50 1023.19 1023.59 1024.36 1024.78 1024.95 1025.19 1025.38 1025.41 1025.58 1026.14 1026.66 1027.41 1028.29 1029.03 1029.91 1030.49
1010.78 1011.91 1012.76 1012.78 1012.60 1012.04 1011.71 1011.92 1011.78 1011.54 1011.86 1012.54 1013.35 1014.26 1015.00 1016.18 1017.09 1018.33 1019.09 1019.84 1019.90 1020.88 1021.17 1020.95 1021.09 1021.66 1022.28 1022.96 1023.81 1024.54 1025.31 1025.48 1025.51 1025.84 1026.18 1026.51 1026.71 1027.25 1027.65 1028.23 1028.97 1029.69 1030.40 1030.96
1010.79 1011.13 1011.29 1011.47 1011.15 1010.96 1010.83 1011.10 1011.27 1011.07 1011.54 1011.98 1013.02 1014.32 1015.70 1017.09 1017.95 1018.43 1019.07 1019.78 1019.76 1019.81 1020.06 1020.33 1020.93 1021.89 1022.59 1023.48 1024.31 1025.05 1025.51 1025.85 1026.04 1026.46 1026.89 1027.27 1027.61 1028.05 1028.66 1029.24 1029.77 1030.12 1030.49 1030.95
1010.42 1010.85 1010.61 1010.81 1010.94 1010.94 1011.27 1011.24 1011.02 1010.64 1011.31 1011.52 1012.52 1015.22 1016.89 1017.69 1017.95 1018.41 1018.46 1018.85 1019.01 1019.44 1019.95 1020.71 1021.45 1022.28 1023.05 1023.87 1024.67 1025.20 1025.60 1026.03 1026.50 1026.98 1027.36 1027.79 1028.08 1028.46 1028.93 1029.43 1029.86 1030.26 1030.68 1031.22
1010.24 1010.58 1010.67 1010.32 1010.61 1011.18 1011.24 1011.14 1011.18 1010.94 1011.14 1012.80 1013.69 1015.52 1016.62 1017.28 1017.72 1018.23 1018.47 1018.75 1019.21 1019.75 1020.50 1021.23 1021.97 1022.75 1023.61 1024.24 1024.74 1025.42 1026.09 1026.63 1027.10 1027.49 1027.72 1028.09 1028.34 1028.69 1029.07 1029.51 1029.95 1030.34 1030.72 1030.96
Wind_Speed
9 8 6 9 9 13 5 3 3 2 2 3 2 4 5 4 5 3 5 2 5 8 9 6 5 8 3 4 5 7 2 6 4 2 1 3 3 5 5 6 4 1 3 9
7 7 9 8 14 12 4 3 2 2 4 6 2 4 2 2 6 5 7 4 7 2 8 4 5 4 0 2 3 8 6 1 4 4 5 2 3 4 4 5 3 6 5 7
10 7 8 10 14 8 4 2 3 3 4 2 6 2 4 2 5 9 9 10 6 0 2 6 6 4 1 2 3 4 6 3 6 8 5 4 4 4 4 6 4 3 7 5
9 10 9 10 11 9 3 1 3 4 5 4 3 6 2 7 3 5 2 6 4 2 3 2 4 2 3 4 2 3 4 4 3 4 3 2 2 3 5 5 4 5 5 6
11 10 9 10 10 10 2 4 3 2 2 4 6 1 6 6 3 6 10 7 12 3 7 9 11 9 5 7 2 3 2 2 2 2 5 4 2 4 5 4 4 5 1 7
13 11 11 11 14 7 3 1 1 4 3 5 6 9 8 9 5 6 4 4 2 5 5 2 3 2 7 8 8 4 5 6 4 3 2 3 5 6 5 2 2 3 4 5
13 12 12 13 16 6 2 2 2 3 4 3 7 8 10 10 5 3 5 4 2 3 6 3 8 12 13 12 8 4 6 5 3 3 3 1 4 4 3 4 1 2 2 4
14 13 12 13 15 12 2 1 1 3 3 2 3 7 6 5 4 5 3 3 2 4 6 5 6 7 7 6 8 7 5 6 5 5 3 5 2 3 5 5 5 1 7 6
15 14 13 14 14 13 2 2 2 3 2 2 5 3 7 6 5 4 3 4 1 1 5 5 2 5 5 4 3 5 8 8 6 3 5 6 4 2 3 4 4 4 8 10
16 15 15 16 17 14 3 2 4 3 2 1 4 3 4 6 3 4 2 5 5 2 2 4 1 1 3 6 8 5 4 4 5 2 1 8 6 3 2 2 7 6 8 8
17 16 17 18 18 15 5 1 3 3 3 2 3 3 4 6 3 7 5 4 3 3 4 4 2 1 5 4 5 6 7 7 4 3 2 8 7 5 7 6 3 6 6 6
18 18 18 17 17 16 7 1 3 3 2 4 4 7 9 8 7 1 2 4 4 6 6 1 5 5 2 5 3 2 3 6 7 9 7 3 1 3 1 6 7 5 7 5
20 19 22 19 18 16 9 2 3 4 2 4 4 5 6 4 9 5 3 2 4 2 1 5 3 4 3 3 3 3 2 3 3 4 1 0 3 3 2 1 6 7 6 13
21 20 21 18 18 16 11 3 2 5 3 2 6 1 8 7 7 9 7 3 6 5 4 4 4 4 2 4 3 4 4 4 5 1 2 4 3 3 4 5 8 10 10 9
22 21 22 22 20 19 8 1 1 2 6 3 4 5 7 9 5 4 3 6 6 2 6 5 2 2 3 2 3 1 2 5 5 6 7 4 3 6 5 8 6 11 12 8
25 24 22 22 20 18 4 3 3 2 4 4 2 4 5 5 6 8 4 6 6 5 5 3 1 2 3 4 2 3 4 3 1 4 4 4 6 6 3 6 6 6 9 12
25 22 21 20 20 9 3 4 3 13 3 4 1 4 4 5 2 3 2 6 5 2 4 3 2 1 4 3 2 4 5 6 10 7 6 7 3 5 7 11 11 14 13 10
24 21 20 19 21 4 2 2 5 7 5 3 3 3 5 2 2 2 2 3 3 7 2 2 2 2 2 3 2 4 5 7 7 6 4 6 10 11 10 10 13 13 10 10
24 22 19 6 4 4 3 10 9 2 3 4 3 5 5 2 3 3 5 4 6 3 3 2 3 2 1 2 4 6 5 1 6 6 7 9 10 9 9 11 9 14 8 8
25 9 3 2 2 18 9 5 3 3 0 2 4 3 2 4 0 3 3 2 2 3 2 2 3 2 3 4 3 6 6 6 5 7 4 5 6 7 6 5 6 10 9 8
3 4 3 1 7 4 3 4 5 4 5 4 5 4 5 1 4 4 2 2 2 3 3 4 0 2 3 1 7 6 7 9 7 5 3 3 8 10 9 7 7 9 9 8
8 9 6 3 2 3 5 6 3 4 6 2 6 5 5 1 3 5 2 4 3 5 3 5 3 2 7 7 7 7 9 7 7 5 5 4 8 8 8 8 8 6 7 7
5 5 4 3 2 5 7 7 5 4 5 5 5 3 4 3 4 5 4 4 4 3 3 4 3 6 6 7 7 8 6 6 5 6 5 6 6 6 5 8 5 7 7 5
4 5 7 6 5 6 5 4 5 4 6 11 6 4 5 2 6 3 5 1 4 3 2 6 4 7 7 6 5 7 5 5 6 6 6 7 8 8 7 6 7 8 8 4
3 4 5 5 3 1 2 2 3 7 8 6 6 6 5 4 5 1 4 3 4 5 4 2 6 8 8 7 6 7 7 5 5 5 6 6 6 6 5 4 4 5 5 5
3 2 3 4 6 4 3 8 10 4 4 4 6 6 4 3 4 4 5 7 5 3 4 5 8 8 6 6 6 7 6 6 5 5 5 5 6 6 7 6 5 5 6 4
2 3 3 4 6 5 4 3 2 1 4 4 5 6 4 4 3 2 2 1 2 6 6 6 7 7 8 7 6 5 6 6 6 7 7 6 6 6 5 5 3 4 5 4
Wind_Direction
149 147 149 167 159 131 108 140 180 293 107 131 192 199 193 326 310 298 261 260 226 184 176 150 165 185 193 352 168 145 153 120 142 203 322 183 177 181 142 132 226 146 150 272
184 154 146 152 150 155 131 147 227 352 78 185 260 295 266 277 332 346 340 313 51 319 175 142 139 153 303 13 119 160 182 86 101 3 351 357 199 191 130 107 84 194 141 263
188 168 152 160 168 147 105 170 119 342 36 356 175 180 237 251 303 252 261 284 291 308 333 26 154 142 19 63 99 78 86 110 154 183 195 154 173 183 150 128 128 199 229 280
196 177 167 164 178 179 86 193 213 183 183 257 195 166 231 198 259 258 240 302 239 263 223 69 122 119 138 32 103 85 107 123 106 76 30 66 165 180 170 193 190 184 256 235
195 183 170 157 162 161 107 141 194 8 190 116 129 203 224 186 168 204 271 274 301 244 205 207 185 154 190 180 161 102 26 146 105 76 30 50 252 255 249 219 205 253 255 275
190 190 164 155 153 176 163 230 314 110 288 124 140 213 214 225 185 261 171 298 263 274 246 232 113 47 103 147 135 131 107 126 99 197 354 13 312 219 197 184 108 175 234 233
189 191 168 163 174 192 140 145 116 86 280 162 197 207 204 228 274 266 317 71 283 297 148 120 57 59 66 63 36 95 118 94 75 144 48 35 248 311 270 140 126 316 95 131
190 185 174 168 181 201 72 43 67 91 314 280 286 200 204 139 204 246 155 256 217 289 21 33 56 358 34 31 31 33 84 110 87 126 182 292 283 204 154 163 242 304 140 117
191 181 176 175 186 194 201 106 113 91 103 267 310 227 178 173 186 295 238 256 95 55 81 47 133 184 157 168 76 26 66 70 103 86 131 209 234 215 118 101 282 159 141 161
191 182 178 176 190 188 176 168 170 112 114 328 7 278 243 152 156 179 279 169 162 86 101 99 235 291 173 157 148 156 69 38 125 115 186 286 241 169 77 131 234 148 165 163
189 178 174 172 184 183 173 147 184 145 145 259 200 272 313 335 165 167 209 82 316 70 95 128 186 175 218 92 148 168 150 136 176 99 103 280 169 98 180 196 82 138 138 153
188 175 176 174 173 178 167 169 158 100 135 226 217 222 225 221 283 245 215 177 160 183 103 114 112 217 130 170 193 116 162 172 177 176 212 276 183 323 96 134 136 159 132 132
185 173 180 181 174 169 170 152 141 92 96 303 23 290 281 266 239 231 171 281 175 82 208 151 127 98 120 132 232 119 137 147 132 90 293 112 73 52 38 86 123 124 120 141
182 171 174 174 173 170 176 152 187 105 108 168 272 317 292 267 261 226 227 241 86 131 59 79 114 124 115 208 171 131 197 120 132 50 347 76 42 74 140 94 99 102 119 134
176 168 179 179 179 182 177 156 229 186 130 180 275 334 265 294 302 180 180 182 78 57 57 56 157 190 139 336 61 321 188 167 155 216 190 146 171 151 133 125 129 135 127 106
177 178 178 175 174 165 142 197 173 177 102 91 5 317 271 302 315 58 33 59 75 55 116 151 170 238 114 99 143 347 2 19 157 191 109 95 102 110 69 102 102 98 117 131
169 168 170 166 161 163 166 176 154 139 98 84 356 295 272 261 256 32 328 14 84 108 100 67 142 29 80 86 119 2 39 65 75 74 90 48 43 127 83 99 90 85 82 88
159 154 154 159 163 108 177 51 137 142 97 131 167 233 291 289 87 83 308 101 60 25 120 21 82 22 61 82 195 112 93 84 53 20 42 118 101 89 92 100 105 90 93 103
144 141 134 136 191 176 115 99 76 353 131 186 152 177 229 359 38 16 25 44 54 309 78 33 66 343 152 148 164 156 153 174 148 88 86 81 98 105 103 106 98 110 113 111
136 126 108 158 208 131 108 38 54 351 225 218 215 143 204 94 337 57 82 15 99 83 278 54 74 202 62 346 91 106 104 108 98 93 82 104 104 126 123 109 109 127 134 126
97 110 140 123 195 81 53 170 182 182 188 192 187 178 138 345 107 128 38 132 32 66 269 127 314 270 161 145 73 60 74 71 64 81 82 81 141 143 132 120 119 128 136 145
137 109 93 156 114 96 182 190 161 211 197 200 141 168 137 123 115 95 346 88 89 189 149 98 211 214 132 108 93 77 69 80 78 69 61 51 123 136 127 128 133 134 127 126
93 74 86 102 158 195 178 170 189 191 183 191 131 116 119 89 68 70 92 102 181 108 66 212 214 137 121 117 110 89 91 100 80 75 65 72 89 77 120 125 97 119 125 131
75 148 156 206 183 204 192 186 179 182 145 132 117 85 93 94 64 121 99 183 125 89 140 223 154 155 132 113 112 115 126 112 98 86 76 78 86 89 74 96 131 140 150 161
129 147 180 175 216 162 153 192 152 137 124 127 108 69 69 44 98 70 121 145 206 201 200 143 138 131 126 121 114 119 120 105 92 85 88 88 89 93 96 103 123 118 118 131
127 136 142 122 121 101 137 138 134 107 140 115 59 91 81 97 140 171 194 161 205 161 142 122 123 117 108 117 121 123 118 115 108 102 108 110 112 125 129 127 119 126 135 136
77 50 11 75 68 103 107 99 57 285 76 87 104 93 153 127 132 130 350 140 102 119 99 94 101 114 121 112 105 117 139 147 151 146 142 132 131 127 122 137 132 144 157 144